Terug naar catalogus

COSMOS 449

ActiefMilitairLEO
NORAD 5552·PAYLOAD·🇷🇺 Russia

Gelanceerd Oct 13, 1971 vanaf Plesetsk Cosmodrome

Loading…

Volgende Passages (komende 24 uur)

TLE

VersSource: Space-Track

Epoch: Sep 14, 2026, 09:11 UTC

1 05552U 71086F   26257.38277807 -.00000027  00000-0 -87232-4 0  9990
2 05552  74.0268  58.6750 0037457 206.3059 162.4946 12.38734786483532

Volg COSMOS 449 in realtime met AllMySat

Download on the App Store